Voltar ao catálogo

STARLINK-36430

AtivoComunicaçõesVLEO
NORAD 67326·PAYLOAD·🇺🇸 United States

Lançado Jan 4, 2026 de Cape Canaveral Space Force Station

Loading…

Próximas Passagens (próximas 24 horas)

TLE

AtualizadoSource: CelesTrak SupGP

Época: Sep 15, 2026, 03:42 UTC

1 67326C 26002X   26258.15465278  .00044075  00000+0  15959-2 0  2583
2 67326  43.0021 334.8551 0001415 266.7012 317.1255 15.27567409    11

Acompanhe STARLINK-36430 em tempo real com AllMySat

Download on the App Store